Location: Plainartige
(45.6866°N, 1.7993°E)
Time: 20:25:34
(UTC+00:00)

RS-15 - Pass Details

Date: 30 June 2022
Orbit: 1881 x 2163 km, 64.8° (Epoch: 19 August)

Event Time Altitude Azimuth Distance (km) Brightness Sun altitude
Rises 23:43:05 0° 323° (NW) 5,699 11.4 -21.1°
Reaches altitude 10° 23:46:33 10° 322° (NW) 4,692 10.8 -21.2°
Maximum altitude 23:58:54 78° 240° (WSW) 2,174 8.1 -21.2°
Enters shadow 00:07:06 25° 159° (SSE) 3,508 8.8 -21.2°
